Flock 4be-18

operational
NORAD ID: 60480 Int'l Des: 2024-149 Owner: PLAN Country: US Constellation: planet
LEOCIRCULARRETROGRADESSO

About Flock 4be-18

Description loading...

Live Position

Loading 3D Globe...

Upcoming Passes

Altitude History

Altitude vs Time

uPlot chart will show altitude changes over time

Two-Line Element Set

1 60480U 24149N 26063.14776441 .00029156 00000-0 77994-3 0 9991
2 60480 97.3786 146.0469 0003069 267.2600 92.8293 15.38005716 86149
Epoch: Mar 4, 2026 • Age: 11 hours

Current Status

Altitude 456.9 km
Velocity 7.64 km/s
Sub-Earth Point -12.12°S, 3.18°E
Launch Date Aug 16, 2024
Age 1.5 years
Type earth observation

Technical Details

Classification Payload
Mass 5.70 kg
Dry Mass 5.70 kg
Total Mass 5.70 kg
Length 0.30 m
Diameter 0.10 m
Span 0.30 m
Shape Box+2 pan
Manufacturer PLAN
Bus Type Cubesat 3U
Phase Status In Orbit
Owner/State PLAN/US

Large Constellations

Loading constellations...